• In United Kingdom
  • List of Countries
  • For 7 days
  • Water Temperature
  • Satellite Maps
  • Weather Map
  • Weather Widgets
  • user-avatar
    Login

    Hourly Weather Bregenz

    Today, 25 September, Tuesday

    Time Temperature Precipitation Wind Pressure Humidity
    00:00 +1°C° 0 mm 1 mps 655 mmHg 86%
    01:00 -1°C° 0 mm 2 mps 655 mmHg 86%
    02:00 -1°C° 0 mm 2 mps 655 mmHg 86%
    03:00 +1°C° 0 mm 1 mps 655 mmHg 86%
    04:00 0°C° 0 mm 1 mps 655 mmHg 86%
    05:00 +1°C° 0 mm 1 mps 655 mmHg 83%
    06:00 -1°C° 0 mm 2 mps 655 mmHg 80%
    07:00 +1°C° 0 mm 1 mps 655 mmHg 76%
    08:00 +3°C° 0 mm 2 mps 656 mmHg 68%
    09:00 +4°C° 0 mm 3 mps 656 mmHg 60%
    10:00 +7°C° 0 mm 3 mps 656 mmHg 51%
    11:00 +8°C° 0 mm 3 mps 657 mmHg 49%
    12:00 +9°C° 0 mm 3 mps 657 mmHg 48%
    13:00 +10°C° 0 mm 4 mps 657 mmHg 46%
    14:00 +10°C° 0 mm 4 mps 657 mmHg 48%
    15:00 +10°C° 0 mm 4 mps 657 mmHg 51%
    16:00 +8°C° 0 mm 4 mps 656 mmHg 54%
    17:00 +7°C° 0 mm 3 mps 656 mmHg 62%
    18:00 +4°C° 0 mm 3 mps 656 mmHg 71%
    19:00 +3°C° 0 mm 2 mps 656 mmHg 79%
    20:00 +3°C° 0 mm 2 mps 656 mmHg 78%
    21:00 +2°C° 0 mm 2 mps 656 mmHg 77%
    22:00 +2°C° 0 mm 2 mps 656 mmHg 75%
    23:00 +2°C° 0 mm 2 mps 656 mmHg 75%

    Tomorrow, 26 September, Wednesday

    Time Temperature Precipitation Wind Pressure Humidity
    00:00 +2°C° 0 mm 2 mps 656 mmHg 74%
    01:00 +2°C° 0 mm 2 mps 656 mmHg 74%
    02:00 +2°C° 0 mm 2 mps 656 mmHg 74%
    03:00 +1°C° 0 mm 2 mps 656 mmHg 74%
    04:00 +1°C° 0 mm 2 mps 656 mmHg 74%
    05:00 +3°C° 0 mm 1 mps 656 mmHg 72%
    06:00 +3°C° 0 mm 1 mps 656 mmHg 71%
    07:00 +3°C° 0 mm 1 mps 656 mmHg 70%
    08:00 +6°C° 0 mm 1 mps 657 mmHg 62%
    09:00 +10°C° 0 mm 1 mps 658 mmHg 53%
    10:00 +12°C° 0 mm 0 mps 658 mmHg 45%
    11:00 +14°C° 0 mm 1 mps 659 mmHg 43%
    12:00 +15°C° 0 mm 1 mps 659 mmHg 41%
    13:00 +16°C° 0 mm 1 mps 659 mmHg 39%
    14:00 +16°C° 0 mm 1 mps 659 mmHg 43%
    15:00 +16°C° 0 mm 1 mps 659 mmHg 47%
    16:00 +15°C° 0 mm 1 mps 658 mmHg 50%
    17:00 +13°C° 0 mm 1 mps 658 mmHg 60%
    18:00 +10°C° 0 mm 1 mps 657 mmHg 71%
    19:00 +7°C° 0 mm 1 mps 656 mmHg 81%
    20:00 +7°C° 0 mm 1 mps 657 mmHg 79%
    21:00 +7°C° 0 mm 1 mps 657 mmHg 78%
    22:00 +7°C° 0 mm 1 mps 657 mmHg 76%
    23:00 +6°C° 0 mm 1 mps 657 mmHg 72%

    Day after tomorrow, 27 September, Thursday

    Time Temperature Precipitation Wind Pressure Humidity
    00:00 +6°C° 0 mm 1 mps 657 mmHg 69%
    01:00 +6°C° 0 mm 1 mps 656 mmHg 65%
    02:00 +6°C° 0 mm 1 mps 656 mmHg 62%
    03:00 +6°C° 0 mm 1 mps 656 mmHg 59%
    04:00 +6°C° 0 mm 1 mps 656 mmHg 56%
    05:00 +6°C° 0 mm 1 mps 656 mmHg 55%
    06:00 +6°C° 0 mm 1 mps 655 mmHg 54%
    07:00 +6°C° 0 mm 1 mps 655 mmHg 53%
    08:00 +10°C° 0 mm 1 mps 656 mmHg 48%
    09:00 +13°C° 0 mm 1 mps 657 mmHg 44%
    10:00 +15°C° 0 mm 0 mps 658 mmHg 40%
    11:00 +18°C° 0 mm 1 mps 658 mmHg 39%
    12:00 +19°C° 0 mm 1 mps 657 mmHg 38%
    13:00 +20°C° 0 mm 1 mps 657 mmHg 37%
    14:00 +19°C° 0 mm 1 mps 657 mmHg 41%
    15:00 +19°C° 0 mm 1 mps 656 mmHg 45%
    16:00 +18°C° 0 mm 1 mps 656 mmHg 50%
    17:00 +15°C° 0 mm 1 mps 655 mmHg 59%
    18:00 +12°C° 0 mm 1 mps 654 mmHg 69%
    19:00 +9°C° 0 mm 1 mps 653 mmHg 79%
    20:00 +9°C° 0 mm 1 mps 653 mmHg 78%
    21:00 +9°C° 0 mm 1 mps 653 mmHg 77%
    22:00 +8°C° 0 mm 1 mps 653 mmHg 77%
    23:00 +8°C° 0 mm 1 mps 652 mmHg 76%

    28 September, Friday

    Time Temperature Precipitation Wind Pressure Humidity
    00:00 +8°C° 0 mm 1 mps 652 mmHg 75%
    01:00 +8°C° 0 mm 1 mps 651 mmHg 75%
    02:00 +7°C° 0 mm 1 mps 651 mmHg 74%
    03:00 +7°C° 0 mm 1 mps 651 mmHg 73%
    04:00 +7°C° 0 mm 1 mps 650 mmHg 72%
    05:00 +7°C° 0 mm 1 mps 650 mmHg 70%
    06:00 +7°C° 0 mm 1 mps 650 mmHg 69%
    07:00 +7°C° 0 mm 1 mps 650 mmHg 67%
    08:00 +10°C° 0 mm 1 mps 651 mmHg 61%
    09:00 +13°C° 0 mm 1 mps 651 mmHg 55%
    10:00 +15°C° 0 mm 1 mps 652 mmHg 49%
    11:00 +16°C° 0 mm 1 mps 652 mmHg 48%
    12:00 +18°C° 0 mm 1 mps 652 mmHg 47%
    13:00 +18°C° 0 mm 2 mps 651 mmHg 46%
    14:00 +17°C° 0 mm 2 mps 651 mmHg 51%
    15:00 +17°C° 0 mm 2 mps 650 mmHg 55%
    16:00 +16°C° 0 mm 2 mps 650 mmHg 59%
    17:00 +14°C° 0 mm 1 mps 649 mmHg 69%
    18:00 +11°C° 0 mm 1 mps 649 mmHg 79%
    19:00 +9°C° 0 mm 1 mps 648 mmHg 89%
    20:00 +8°C° 0 mm 1 mps 649 mmHg 90%
    21:00 +8°C° 0 mm 1 mps 649 mmHg 91%
    22:00 +7°C° 0 mm 1 mps 649 mmHg 92%
    23:00 +7°C° 0 mm 1 mps 649 mmHg 92%

    29 September, Saturday

    Time Temperature Precipitation Wind Pressure Humidity
    00:00 +7°C° 0 mm 1 mps 649 mmHg 92%
    01:00 +6°C° 0 mm 1 mps 648 mmHg 92%
    02:00 +6°C° 0 mm 1 mps 648 mmHg 93%
    03:00 +6°C° 0 mm 1 mps 648 mmHg 93%
    04:00 +6°C° 0 mm 1 mps 648 mmHg 94%
    05:00 +6°C° 0 mm 1 mps 648 mmHg 93%
    06:00 +6°C° 0 mm 1 mps 648 mmHg 93%
    07:00 +5°C° 0 mm 2 mps 649 mmHg 92%
    08:00 +7°C° 0 mm 2 mps 649 mmHg 84%
    09:00 +9°C° 0 mm 2 mps 650 mmHg 76%
    10:00 +12°C° 0 mm 2 mps 650 mmHg 69%
    11:00 +12°C° 0 mm 3 mps 650 mmHg 65%
    12:00 +13°C° 0 mm 3 mps 650 mmHg 62%
    13:00 +14°C° 0 mm 3 mps 650 mmHg 59%
    14:00 +13°C° 0 mm 3 mps 650 mmHg 62%
    15:00 +13°C° 0 mm 3 mps 649 mmHg 65%
    16:00 +13°C° 0 mm 3 mps 649 mmHg 68%
    17:00 +11°C° 0 mm 3 mps 649 mmHg 77%
    18:00 +9°C° 0 mm 2 mps 648 mmHg 85%
    19:00 +7°C° 0 mm 2 mps 648 mmHg 93%
    20:00 +6°C° 0 mm 2 mps 648 mmHg 92%
    21:00 +6°C° 0 mm 2 mps 648 mmHg 92%
    22:00 +6°C° 0 mm 2 mps 648 mmHg 91%
    23:00 +6°C° 0 mm 2 mps 648 mmHg 90%

    30 September, Sunday

    Time Temperature Precipitation Wind Pressure Humidity
    00:00 +6°C° 0 mm 2 mps 648 mmHg 90%
    01:00 +6°C° 0 mm 1 mps 647 mmHg 89%
    02:00 +6°C° 0 mm 1 mps 647 mmHg 89%
    03:00 +6°C° 0 mm 1 mps 647 mmHg 88%
    04:00 +6°C° 0 mm 1 mps 647 mmHg 88%
    05:00 +6°C° 0 mm 1 mps 647 mmHg 87%
    06:00 +6°C° 0 mm 1 mps 647 mmHg 86%
    07:00 +6°C° 0 mm 1 mps 647 mmHg 85%
    08:00 +9°C° 0 mm 1 mps 647 mmHg 76%
    09:00 +12°C° 0 mm 1 mps 648 mmHg 67%
    10:00 +14°C° 0 mm 1 mps 648 mmHg 58%
    11:00 +15°C° 0 mm 1 mps 648 mmHg 55%
    12:00 +16°C° 0 mm 1 mps 648 mmHg 51%
    13:00 +17°C° 0 mm 2 mps 648 mmHg 47%
    14:00 +17°C° 0 mm 2 mps 648 mmHg 50%
    15:00 +18°C° 0 mm 1 mps 648 mmHg 52%
    16:00 +16°C° 0 mm 1 mps 648 mmHg 55%
    17:00 +14°C° 0 mm 1 mps 647 mmHg 64%
    18:00 +11°C° 0 mm 1 mps 647 mmHg 74%
    19:00 +9°C° 0 mm 1 mps 646 mmHg 84%
    20:00 +9°C° 0 mm 1 mps 646 mmHg 82%
    21:00 +8°C° 0 mm 1 mps 646 mmHg 81%
    22:00 +8°C° 0 mm 1 mps 645 mmHg 80%
    23:00 +8°C° 0 mm 1 mps 645 mmHg 79%
    Show more